Hourly Data Report for October 13, 2013

All times are specified in Local Standard Time (LST). Add 1 hour to adjust for Daylight Saving Time where and when it is observed.

MONCTON INTL A
NEW BRUNSWICK

46°06'44.000" N
64°40'43.000" W
70.70 m
8103201
71705
YQM

Download Data

Hourly Data (October 2013)
Hourly Data Report for October 13, 2013
Temp Definition
°C
Dew Point Temp Definition
°C
Rel Hum Definition
%
Wind Dir Definition
10's deg

Wind Spd Definition
km/h
Visibility Definition
km
Stn Press Definition
kPa
Hmdx Definition


Wind Chill Definition


Weather Definition


TIME
00:00 Legend Double Dagger 0.9 0.6 98 25 3 0.8 102.16     Fog
01:00 Legend Double Dagger 1.0 0.3 95 26 4 19.3 102.19     LegendNANA
02:00 Legend Double Dagger -1.2 -1.5 98 23 9 0.4 102.19   -4 Fog,Freezing Fog
03:00 Legend Double Dagger -1.4 -1.8 97 23 8 4.8 102.23   -4 Fog
04:00 Legend Double Dagger -1.5 -2.1 96 21 9 19.3 102.23   -5 LegendNANA
05:00 Legend Double Dagger -1.3 -2.0 95 22 12 24.1 102.21   -5 Mainly Clear
06:00 Legend Double Dagger -1.8 -2.6 94 23 10 24.1 102.22   -5 LegendNANA
07:00 Legend Double Dagger -2.0 -2.7 95 22 9 24.1 102.24   -5 LegendNANA
08:00 Legend Double Dagger -0.1 -1.0 94 22 9 24.1 102.26   -3 Clear
09:00 Legend Double Dagger 3.3 1.2 86 23 8 24.1 102.26     LegendNANA
10:00 Legend Double Dagger 7.1 2.8 74 24 6 24.1 102.28     LegendNANA
11:00 Legend Double Dagger 10.0 3.8 65 9 8 24.1 102.26     Mainly Clear
12:00 Legend Double Dagger 10.0 3.5 64 3 10 24.1 102.20     LegendNANA
13:00 Legend Double Dagger 11.7 3.5 57 31 3 24.1 102.14     LegendNANA
14:00 Legend Double Dagger 12.2 2.1 50 30 7 24.1 102.11     Clear
15:00 Legend Double Dagger 12.8 1.5 46 33 8 24.1 102.06     LegendNANA
16:00 Legend Double Dagger 12.0 3.3 55 7 10 24.1 102.01     LegendNANA
17:00 Legend Double Dagger 9.8 1.7 57 5 10 24.1 101.99     Mainly Clear
18:00 Legend Double Dagger 6.6 0.1 63 6 9 24.1 101.97     LegendNANA
19:00 Legend Double Dagger 4.6 0.0 72 7 5 24.1 102.00     LegendNANA
20:00 Legend Double Dagger 5.0 -0.4 68 13 13 24.1 101.98     Clear
21:00 Legend Double Dagger 5.1 0.9 74 15 9 24.1 101.95     LegendNANA
22:00 Legend Double Dagger 2.4 0.6 88 21 7 24.1 101.95     LegendNANA
23:00 Legend Double Dagger 2.5 1.3 92 20 9 24.1 101.94     Clear

Notes on Data Quality.

Legend

  • E = Estimated
  • M = Missing
  • NA = Not Available
  • ‡ = Partner data that is not subject to review by the National Climate Archives
Date modified: